Location: *
(47.6569°N, 7.4256°E)
Time: 11:46:44
(UTC+00:00)

Cosmos 1743 - Pass Details

Date: 14 December 2019
Orbit: 512 x 526 km, 82.6° (Epoch: 21 January)

Event Time Altitude Azimuth Distance (km) Brightness Sun altitude
Rises 16:26:17 0° 1° (N) 2,662 6.0 -7.7°
Reaches altitude 10° 16:28:44 10° 16° (NNE) 1,771 5.0 -8.1°
Maximum altitude 16:31:57 24° 72° (ENE) 1,112 3.8 -8.6°
Drops below altitude 10° 16:35:09 10° 127° (SE) 1,765 5.1 -9.1°
Sets 16:37:35 0° 142° (SE) 2,650 6.2 -9.5°
